[[[{"header":{"parameterUnit":"kt","parameterCategory":2,"dx":1,"dy":1,"la1":30.253999710083008,"la2":30.299108505249023,"lo1":-89.0895004272461,"lo2":-89.04439544677734,"nx":28,"ny":28,"refTime":"2022-10-02T21:00:00:Z","depth":0,"parameterNumber":1,"parameterNumberName":"U-component_of_WINDS"},"data":[-3.908,-3.911,-3.9078,-3.9097,-3.9071,-3.9077,-3.9069,-3.9055,-3.9036,-3.904,-3.9036,-3.9006,-3.8972,-3.8959,-3.8953,-3.8939,-3.8937,-3.8972,-3.8949,-3.8828,-3.8809,-3.8791,-3.878,-3.8972,-3.8973,-3.9078,-3.9079,-3.908,-3.8991,-3.8966,-3.8967,-3.8946,-3.8946,-3.8893,-3.8872,-3.8875,-3.8883,-3.886,-3.8854,-3.8855,-3.8851,-3.8805,-3.8796,-3.8807,-3.8781,-3.8807,-3.8804,-3.8799,-3.8669,-3.8659,-3.8828,-3.8828,-3.8828,-3.8828,-3.8828,-3.8828,-3.882,-3.8841,-3.8808,-3.8809,-3.879,-3.8776,-3.8788,-3.8751,-3.8751,-3.8738,-3.8699,-3.8707,-3.8677,-3.8649,-3.8632,-3.8636,-3.8601,-3.8618,-3.8622,-3.8627,-3.8636,-3.8483,-3.8633,-3.8632,-3.8632,-3.8631,-3.8631,0,-3.8684,-3.8656,-3.8655,-3.8644,-3.8643,-3.8632,-3.8615,-3.8623,-3.855,-3.8554,-3.8555,-3.8551,-3.8541,-3.8538,-3.8522,-3.85,-3.8444,-3.8436,-3.8447,-3.8464,-3.8482,-3.847,-3.8256,-3.8431,-3.8429,-3.8428,-3.8427,-3.8426,-3.8507,-3.8536,-3.8487,-3.849,-3.8473,-3.8481,-3.8478,-3.8412,-3.8412,-3.8382,-3.8403,-3.84,-3.8394,-3.8402,-3.8357,-3.835,-3.8322,-3.8392,-3.8321,-3.8336,-3.832,-3.8318,-3.8319,-3.8407,-3.8409,-3.8411,-3.8413,0,-3.841,-3.8356,-3.8389,-3.8338,-3.8326,-3.8358,-3.8313,-3.8331,-3.8293,-3.8311,-3.8311,-3.8251,-3.8254,-3.8197,-3.819,-3.816,-3.8209,-3.8184,-3.8218,-3.8209,-3.8264,-3.8259,-3.8457,-3.8478,-3.8281,-3.8283,-3.8285,0,-3.8236,-3.8277,-3.8193,-3.8215,-3.8257,-3.8189,-3.8232,-3.8203,-3.8176,-3.8189,-3.8118,-3.8132,-3.8057,-3.8063,-3.802,-3.8051,-3.805,-3.8028,-3.8015,-3.8033,-3.8035,-3.803,-3.802,-3.7989,-3.7988,-3.7987,-3.7987,0,-3.8088,-3.8091,-3.8127,-3.8119,-3.8068,-3.8086,-3.8066,-3.8035,-3.8034,-3.8023,-3.802,-3.8013,-3.8008,-3.8003,-3.7946,-3.79,-3.7984,-3.7908,-3.7961,-3.7962,-3.7981,-3.798,-3.8172,-3.7985,-3.7985,-3.7985,-3.7985,0,-3.7939,-3.7929,-3.7991,-3.7945,-3.7949,-3.7973,-3.796,-3.7968,-3.7941,-3.7914,-3.7905,-3.785,-3.7875,-3.7803,-3.7834,-3.7789,-3.7789,-3.777,-3.7773,-3.7769,-3.769,-3.7802,-3.7993,-3.8009,-3.7769,-3.7767,-3.7765,0,-3.7782,-3.783,-3.7771,-3.7831,-3.7844,-3.7761,-3.7787,-3.7765,-3.7732,-3.7738,-3.7701,-3.7709,-3.7644,-3.7638,-3.7662,-3.7624,-3.7683,-3.7615,-3.7621,-3.7623,-3.7628,-3.7804,-3.7845,-3.7958,-3.7742,-3.7744,-3.7746,0,-3.7653,-3.7591,-3.7606,-3.7593,-3.7554,-3.7566,-3.7596,-3.7589,-3.7596,-3.7581,-3.7603,-3.7615,-3.7565,-3.7557,-3.7511,-3.7539,-3.7641,-3.7482,-3.748,-3.751,-3.7726,-3.7764,-3.7784,-3.7604,-3.7607,-3.7609,-3.7727,0,-3.7435,-3.7452,-3.7491,-3.7467,-3.7467,-3.7502,-3.7441,-3.7449,-3.7405,-3.7368,-3.7401,-3.737,-3.7363,-3.7371,-3.7329,-3.7411,-3.7387,-3.7335,-3.7259,-3.7376,-3.7413,-3.7428,-3.7208,-3.7206,-3.7204,-3.7202,0,0,-3.7297,-3.732,-3.7255,-3.7282,-3.7278,-3.719,-3.7233,-3.7219,-3.7193,-3.7192,-3.715,-3.7161,-3.7138,-3.7184,-3.7216,-3.7215,-3.7223,-3.7185,-3.7321,-3.7335,-3.7347,-3.7388,-3.7405,-3.7198,-3.7197,-3.7196,-3.7196,0,-3.7204,-3.7182,-3.7226,-3.7208,-3.7179,-3.7139,-3.715,-3.7106,-3.7085,-3.7118,-3.7044,-3.7057,-3.707,-3.7053,-3.7047,-3.7178,-3.7121,-3.7181,-3.7271,-3.7302,-3.7318,-3.7333,-3.7377,-3.7394,-3.719,-3.7191,-3.7191,0,-3.7064,-3.7032,-3.7047,-3.7034,-3.7015,-3.7032,-3.6937,-3.6961,-3.6972,-3.6875,-3.6909,-3.6884,-3.6858,-3.6911,-3.6932,-3.6894,-3.7032,-3.6979,-3.6991,-3.6992,-3.7019,-3.7039,-3.7056,-3.6822,-3.6821,-3.682,0,0,-3.6992,-3.7008,-3.6952,-3.701,-3.7002,-3.6943,-3.6947,-3.6902,-3.688,-3.6872,-3.6838,-3.6819,-3.6824,-3.683,-3.6833,-3.6901,-3.6888,-3.6936,-3.6954,-3.6968,-3.6977,-3.7007,-3.7027,-3.6816,-3.6816,-3.6816,0,0,-3.6957,-3.6894,-3.6853,-3.6912,-3.6894,-3.6842,-3.688,-3.6827,-3.6824,-3.6813,-3.6739,-3.673,-3.6779,-3.6757,-3.6712,-3.6804,-3.6731,-3.6741,-3.6817,-3.6838,-3.6855,-3.6858,-3.661,0,0,0,0,0,-3.683,-3.6902,-3.6865,-3.6865,-3.685,-3.6863,-3.6861,-3.6801,-3.6749,-3.678,-3.6743,-3.6682,-3.6717,-3.6675,-3.6677,-3.6727,-3.6765,-3.6774,-3.6783,-3.6896,-3.6919,-3.6938,0,0,0,0,0,0,-3.6829,-3.6831,-3.6862,-3.6816,-3.6811,-3.686,-3.6759,-3.6745,-3.6744,-3.6732,-3.6691,-3.6681,-3.663,-3.6669,-3.6672,-3.6722,-3.6609,-3.6769,-3.6776,-3.6783,-3.6904,-3.6923,-3.6939,0,0,0,0,0,-3.6829,-3.683,-3.6821,-3.6814,-3.6811,-3.6748,-3.6756,-3.6743,-3.6742,-3.6684,-3.6672,-3.6696,-3.6634,-3.6632,-3.6671,-3.6722,-3.6606,-3.6608,-3.6774,-3.678,-3.6785,-3.6913,0,0,0,0,0,0,-3.6828,-3.6818,-3.6818,-3.6815,-3.6782,-3.6744,-3.6736,-3.6742,-3.6692,-3.6681,-3.6685,-3.6677,-3.6637,-3.6634,-3.6633,-3.6726,-3.6605,-3.6606,-3.6607,-3.6778,-3.6783,-3.6787,0,0,0,0,0,0,-3.6817,-3.6816,-3.6817,-3.678,-3.6772,-3.6741,-3.6734,-3.6759,-3.6693,-3.6696,-3.6687,-3.6682,-3.6638,-3.6637,-3.6636,-3.6677,-3.6603,-3.6604,-3.6605,-3.6606,-3.6782,-3.6786,0,0,0,0,0,0,-3.6815,-3.6814,-3.678,-3.6774,-3.6767,-3.6725,-3.6762,-3.6749,-3.6662,-3.67,-3.6652,-3.6648,-3.6643,-3.664,-3.6638,-3.6681,-3.6678,-3.6603,-3.6604,-3.6605,-3.6605,0,0,0,0,0,0,0,-3.6814,-3.6836,-3.6838,-3.6769,-3.6763,-3.6784,-3.6783,-3.6782,-3.6661,-3.6657,-3.6653,-3.665,-3.6596,-3.6598,-3.6599,-3.6683,0,0,-3.6603,-3.6604,0,0,0,0,0,0,0,0,-3.6835,-3.6835,-3.6838,-3.6838,-3.6837,-3.6784,-3.6783,-3.6783,-3.666,-3.6657,-3.6654,-3.6651,-3.6597,-3.6598,-3.6599,0,0,0,0,0,0,0,0,0,0,0,0,0,0,0,-3.6838,-3.6838,0,-3.6784,-3.6783,-3.6783,-3.666,-3.6657,-3.6655,-3.6652,-3.6597,-3.6598,-3.6599,0,0,0,0,0,0,0,0,0,0,0,0,0,0,0,0,0,0,0,0,0,0,0,0,0,0,0,0,0,0,0,0,0,0,0,0,0,0,0,0,0,0,0,0,0,0,0,0,0,0,0,0,0,0,0,0,0,0,0,0,0,0,0,0,0,0,0,0,0]}],[{"header":{"parameterUnit":"kt","parameterCategory":2,"dx":1,"dy":1,"la1":30.253999710083008,"la2":30.299108505249023,"lo1":-89.0895004272461,"lo2":-89.04439544677734,"nx":28,"ny":28,"refTime":"2022-10-02T21:00:00:Z","depth":0,"parameterNumber":2,"parameterNumberName":"V-component_of_WINDS"},"data":[-6.7309,-6.7325,-6.7307,-6.7317,-6.7303,-6.7306,-6.7301,-6.7293,-6.7282,-6.7284,-6.7282,-6.7266,-6.7247,-6.724,-6.7236,-6.7228,-6.7226,-6.7245,-6.7232,-6.7167,-6.7156,-6.7146,-6.7139,-6.7246,-6.7246,-6.73,-6.7301,-6.7301,-6.7262,-6.7248,-6.7249,-6.7237,-6.7237,-6.7208,-6.7197,-6.7198,-6.7201,-6.7189,-6.7186,-6.7185,-6.7183,-6.7158,-6.7152,-6.7158,-6.7142,-6.7157,-6.7154,-6.7151,-6.7081,-6.7075,-6.7169,-6.7169,-6.7169,-6.7169,-6.7169,-6.7169,-6.7171,-6.7182,-6.7164,-6.7164,-6.7153,-6.7145,-6.7152,-6.7131,-6.7131,-6.7123,-6.7102,-6.7106,-6.7089,-6.7073,-6.7063,-6.7065,-6.7045,-6.7054,-6.7056,-6.7057,-6.7061,-6.6979,-6.7064,-6.7063,-6.7063,-6.7063,-6.7063,0,-6.7098,-6.7082,-6.7081,-6.7075,-6.7074,-6.7067,-6.7058,-6.7062,-6.7021,-6.7023,-6.7024,-6.7021,-6.7015,-6.7013,-6.7004,-6.6991,-6.6958,-6.6955,-6.696,-6.6967,-6.6975,-6.6967,-6.685,-6.6951,-6.695,-6.6949,-6.6948,-6.6948,-6.7,-6.7016,-6.6989,-6.699,-6.698,-6.6985,-6.6983,-6.6946,-6.6945,-6.6929,-6.694,-6.6938,-6.6933,-6.6938,-6.6912,-6.6907,-6.689,-6.693,-6.6889,-6.6897,-6.6886,-6.6883,-6.6883,-6.6937,-6.6939,-6.694,-6.6941,0,-6.6947,-6.6917,-6.6935,-6.6905,-6.6899,-6.6917,-6.6891,-6.69,-6.6879,-6.6889,-6.6889,-6.6854,-6.6855,-6.6823,-6.6818,-6.6801,-6.6827,-6.6814,-6.6832,-6.6826,-6.6855,-6.6851,-6.6963,-6.6974,-6.6869,-6.687,-6.6871,0,-6.685,-6.6872,-6.6825,-6.6837,-6.686,-6.6821,-6.6845,-6.6828,-6.6813,-6.682,-6.6779,-6.6787,-6.6744,-6.6747,-6.6722,-6.6738,-6.6739,-6.6725,-6.6717,-6.6726,-6.6727,-6.6721,-6.6714,-6.6704,-6.6703,-6.6703,-6.6702,0,-6.6765,-6.6767,-6.6787,-6.6782,-6.6752,-6.6763,-6.6751,-6.6733,-6.6732,-6.6725,-6.6723,-6.6719,-6.6716,-6.6713,-6.6679,-6.6652,-6.6701,-6.6656,-6.6685,-6.6686,-6.6694,-6.6693,-6.6805,-6.6702,-6.6701,-6.6701,-6.6701,0,-6.6679,-6.6674,-6.6709,-6.6682,-6.6683,-6.6698,-6.6689,-6.6694,-6.6678,-6.6662,-6.6657,-6.6624,-6.6639,-6.6597,-6.6615,-6.6589,-6.6588,-6.6576,-6.6578,-6.6573,-6.6525,-6.6587,-6.6701,-6.6709,-6.6574,-6.6573,-6.6572,0,-6.6589,-6.6616,-6.6581,-6.6616,-6.6623,-6.6574,-6.6589,-6.6576,-6.6557,-6.656,-6.6538,-6.6542,-6.6504,-6.65,-6.6515,-6.6491,-6.6526,-6.6486,-6.6487,-6.6488,-6.6488,-6.6593,-6.6616,-6.668,-6.6558,-6.656,-6.6561,0,-6.6513,-6.6476,-6.6485,-6.6476,-6.6453,-6.6459,-6.6478,-6.6472,-6.6476,-6.6468,-6.6479,-6.6487,-6.6457,-6.6452,-6.6424,-6.6441,-6.6501,-6.6406,-6.6405,-6.642,-6.655,-6.6571,-6.6582,-6.6479,-6.6481,-6.6482,-6.655,0,-6.6384,-6.6394,-6.6417,-6.6401,-6.6401,-6.6422,-6.6385,-6.639,-6.6363,-6.634,-6.636,-6.6341,-6.6335,-6.6341,-6.6315,-6.6364,-6.6349,-6.6318,-6.627,-6.6342,-6.6363,-6.6372,-6.6242,-6.6241,-6.6239,-6.6238,0,0,-6.6302,-6.6314,-6.6275,-6.6291,-6.6287,-6.6235,-6.6259,-6.6251,-6.6235,-6.6233,-6.6208,-6.6214,-6.6199,-6.6226,-6.6246,-6.6246,-6.625,-6.6226,-6.6309,-6.6317,-6.6325,-6.6348,-6.6358,-6.6236,-6.6235,-6.6235,-6.6234,0,-6.6245,-6.6232,-6.6258,-6.6247,-6.6228,-6.6203,-6.621,-6.6182,-6.6169,-6.6189,-6.6143,-6.6151,-6.6158,-6.6147,-6.6142,-6.6224,-6.6187,-6.6226,-6.6279,-6.6297,-6.6307,-6.6316,-6.6341,-6.6351,-6.6231,-6.6231,-6.6231,0,-6.616,-6.614,-6.6149,-6.6141,-6.6128,-6.6138,-6.6079,-6.6093,-6.6099,-6.604,-6.6059,-6.6044,-6.6027,-6.6059,-6.6072,-6.6048,-6.6132,-6.61,-6.6108,-6.6107,-6.6122,-6.6134,-6.6145,-6.6003,-6.6003,-6.6002,0,0,-6.6116,-6.6125,-6.6091,-6.6125,-6.6121,-6.6083,-6.6085,-6.6057,-6.6043,-6.6037,-6.6016,-6.6003,-6.6006,-6.6009,-6.6011,-6.6052,-6.6043,-6.6074,-6.6084,-6.6093,-6.6098,-6.6115,-6.6127,-6.6,-6.5999,-6.5999,0,0,-6.6094,-6.6055,-6.6029,-6.6065,-6.6053,-6.602,-6.6043,-6.601,-6.6007,-6.6,-6.5954,-6.5948,-6.5978,-6.5964,-6.5936,-6.5992,-6.5947,-6.5953,-6.5999,-6.6012,-6.6023,-6.6023,-6.5871,0,0,0,0,0,-6.6016,-6.606,-6.6037,-6.6037,-6.6026,-6.6034,-6.6032,-6.5994,-6.5961,-6.598,-6.5957,-6.5918,-6.5939,-6.5912,-6.5913,-6.5944,-6.5968,-6.5973,-6.5979,-6.6048,-6.6062,-6.6074,0,0,0,0,0,0,-6.6015,-6.6016,-6.6035,-6.6005,-6.6002,-6.6032,-6.5968,-6.5959,-6.5958,-6.5951,-6.5924,-6.5918,-6.5885,-6.5909,-6.5911,-6.5941,-6.5871,-6.597,-6.5975,-6.5979,-6.6053,-6.6064,-6.6074,0,0,0,0,0,-6.6015,-6.6015,-6.6008,-6.6004,-6.6002,-6.5962,-6.5966,-6.5958,-6.5957,-6.592,-6.5912,-6.5928,-6.5887,-6.5886,-6.591,-6.5941,-6.5869,-6.587,-6.5973,-6.5977,-6.598,-6.6058,0,0,0,0,0,0,-6.6015,-6.6008,-6.6006,-6.6004,-6.5984,-6.5959,-6.5954,-6.5958,-6.5925,-6.5918,-6.5921,-6.5916,-6.5889,-6.5888,-6.5887,-6.5943,-6.5868,-6.5869,-6.5869,-6.5976,-6.5979,-6.5982,0,0,0,0,0,0,-6.6007,-6.6006,-6.6005,-6.5982,-6.5977,-6.5957,-6.5953,-6.5968,-6.5926,-6.5928,-6.5922,-6.5919,-6.589,-6.589,-6.5889,-6.5914,-6.5867,-6.5868,-6.5869,-6.5869,-6.5978,-6.5981,0,0,0,0,0,0,-6.6006,-6.6005,-6.5982,-6.5979,-6.5974,-6.5946,-6.597,-6.5961,-6.5906,-6.593,-6.59,-6.5897,-6.5893,-6.5891,-6.589,-6.5916,-6.5915,-6.5868,-6.5868,-6.5868,-6.5869,0,0,0,0,0,0,0,-6.6005,-6.602,-6.6019,-6.5975,-6.5971,-6.5984,-6.5983,-6.5983,-6.5906,-6.5903,-6.5901,-6.5898,-6.5864,-6.5864,-6.5865,-6.5918,0,0,-6.5867,-6.5868,0,0,0,0,0,0,0,0,-6.6019,-6.602,-6.6019,-6.6019,-6.6018,-6.5984,-6.5983,-6.5983,-6.5905,-6.5903,-6.5901,-6.5899,-6.5864,-6.5864,-6.5865,0,0,0,0,0,0,0,0,0,0,0,0,0,0,0,-6.6019,-6.6019,0,-6.5984,-6.5983,-6.5983,-6.5905,-6.5903,-6.5902,-6.59,-6.5864,-6.5864,-6.5865,0,0,0,0,0,0,0,0,0,0,0,0,0,0,0,0,0,0,0,0,0,0,0,0,0,0,0,0,0,0,0,0,0,0,0,0,0,0,0,0,0,0,0,0,0,0,0,0,0,0,0,0,0,0,0,0,0,0,0,0,0,0,0,0,0,0,0,0,0]}]]]